Probability
26 26 29 29 29 32 29 26 26 23 19 26 23 23 26 19 13 13 19 16 19 23 13 10 6 3 3 3 3 3 3 3 3 3 3 0 3 3 3 3 3 3 3
26 19 16 26 26 23 26 19 23 19 23 19 13 19 19 19 16 10 16 16 19 23 19 13 6 6 3 3 3 3 3 3 3 3 3 3 3 3 3 3 3 3 3
26 19 19 23 23 19 16 26 19 19 19 16 10 16 16 16 13 13 13 13 16 19 19 13 6 6 3 3 3 3 3 3 3 3 3 3 3 0 0 0 3 3 3
26 23 26 26 23 16 19 10 16 16 16 16 10 10 13 16 13 13 10 6 13 16 13 10 3 3 3 3 3 3 3 3 3 3 3 0 0 0 0 0 0 0 0
16 16 19 16 19 19 16 16 10 13 13 13 10 10 10 10 10 6 10 10 16 16 13 10 3 3 3 3 3 3 3 3 3 3 3 3 0 0 0 0 0 0 0
10 13 13 16 10 6 10 13 16 13 19 13 10 10 10 6 6 6 10 3 16 16 13 13 10 3 3 3 3 3 3 3 3 0 0 3 3 0 0 0 0 0 0
6 10 10 6 6 6 10 13 16 16 13 10 13 10 6 3 3 6 6 6 6 16 13 13 10 6 3 3 3 0 3 3 3 0 0 0 0 0 0 0 0 0 0
6 3 6 6 10 10 10 6 10 10 3 10 10 10 6 3 3 3 6 3 3 6 13 13 10 10 6 6 3 3 0 0 0 0 0 0 0 0 0 0 0 0 0
0 0 0 0 3 3 3 3 3 6 3 0 0 6 6 3 3 3 0 3 3 3 3 6 3 6 6 6 6 3 3 3 0 0 0 0 0 0 0 0 0 0 0
0 0 0 0 0 0 0 0 0 3 6 3 3 0 0 3 3 3 3 3 6 6 6 6 6 6 6 6 6 3 3 3 3 0 0 0 3 0 0 0 0 0 0
0 0 0 0 0 0 0 0 0 0 0 3 3 3 3 0 0 0 3 0 3 6 6 6 6 6 6 6 6 6 6 3 3 3 0 0 0 0 0 0 0 0 0
0 0 0 0 0 0 0 0 0 0 0 3 3 3 3 0 3 3 0 0 0 3 3 6 10 10 6 6 6 6 6 6 3 3 3 3 0 0 0 0 0 0 0
0 0 0 0 0 0 0 0 0 0 0 0 3 3 3 3 6 3 3 3 3 3 3 6 6 6 3 3 3 3 3 3 3 3 3 3 0 0 0 0 0 0 0
0 0 0 0 0 0 0 0 0 0 0 0 0 0 0 3 3 3 3 3 3 3 3 6 6 6 3 3 3 3 3 3 3 3 3 3 0 0 0 0 0 0 0
0 0 0 0 0 0 0 0 0 0 0 0 0 0 3 3 3 3 3 3 6 6 6 6 6 6 3 3 3 3 3 3 3 3 3 3 3 0 0 0 0 0 0
0 0 0 0 0 0 0 0 0 0 0 0 0 0 3 3 3 3 3 3 6 6 3 3 3 3 3 3 3 3 3 3 3 3 3 0 0 0 0 0 0 0 0
0 0 0 0 0 0 0 0 0 0 0 0 0 0 3 3 3 3 3 3 3 3 3 3 3 3 3 3 3 3 3 3 3 3 0 0 0 0 0 0 0 0 0
0 0 0 0 0 0 0 0 0 0 0 0 0 0 3 3 3 3 0 3 3 3 3 3 3 3 3 0 0 0 3 3 3 3 0 0 0 0 0 0 0 0 0
0 0 0 0 0 0 0 0 0 0 0 0 0 0 3 3 0 0 0 3 3 3 3 3 3 3 3 0 0 0 3 3 3 0 0 0 0 0 0 0 0 0 0
0 0 0 0 0 0 0 0 0 0 0 0 0 0 0 0 0 0 3 3 3 3 3 3 3 3 3 0 0 0 3 3 0 0 0 0 0 0 0 0 0 0 0
0 0 0 0 0 0 0 0 0 0 0 0 3 0 0 0 0 3 3 3 3 3 3 3 3 3 3 0 0 0 3 3 0 0 0 0 0 0 0 0 0 0 0
0 0 0 0 0 0 0 0 0 0 0 0 0 0 0 3 3 3 3 3 3 3 3 3 3 0 0 0 0 0 0 0 0 0 0 0 0 0 0 0 0 0 0
0 0 0 0 0 0 0 0 0 0 0 0 0 0 3 0 0 0 3 3 3 3 3 3 3 0 0 0 0 0 0 0 0 0 0 0 0 0 0 0 0 0 0
0 0 0 0 0 0 0 0 0 0 0 0 0 3 0 0 0 0 0 0 0 0 3 3 3 3 0 0 0 0 0 0 0 0 0 0 0 0 0 0 0 0 0
0 0 0 0 0 0 0 0 0 0 0 0 0 0 0 0 0 0 0 0 0 0 0 0 3 3 0 0 0 0 0 0 0 0 0 0 0 0 0 0 0 0 0
0 0 0 0 0 0 0 0 0 0 0 0 0 0 0 0 0 0 0 0 0 0 0 0 0 0 0 0 0 0 0 0 0 0 0 0 0 0 0 0 0 0 0
Height
5833 5831 5829 5829 5828 5828 5827 5826 5826 5826 5825 5824 5824 5824 5824 5823 5823 5823 5822 5822 5822 5821 5821 5820 5819 5818 5817 5816 5815 5813 5812 5810 5809 5807 5806 5804 5803 5801 5799 5797 5796 5794 5793
5829 5827 5826 5825 5825 5824 5822 5822 5821 5820 5819 5819 5818 5818 5819 5818 5819 5818 5818 5817 5817 5817 5816 5815 5814 5813 5812 5811 5809 5808 5807 5805 5804 5803 5801 5800 5799 5796 5794 5792 5791 5789 5787
5825 5824 5822 5821 5821 5819 5817 5816 5815 5815 5814 5814 5814 5814 5814 5814 5815 5814 5814 5813 5813 5812 5812 5811 5810 5809 5807 5806 5804 5803 5802 5800 5799 5797 5796 5794 5793 5791 5789 5787 5785 5783 5781
5820 5819 5817 5816 5815 5814 5813 5811 5810 5810 5809 5809 5809 5809 5810 5810 5810 5810 5809 5809 5808 5808 5807 5806 5805 5804 5802 5801 5799 5798 5796 5795 5793 5792 5790 5789 5787 5785 5784 5782 5779 5777 5775
5816 5814 5812 5811 5810 5809 5808 5806 5806 5805 5804 5803 5804 5805 5806 5805 5805 5805 5805 5804 5804 5803 5802 5801 5800 5799 5797 5796 5794 5792 5791 5789 5788 5786 5784 5783 5781 5779 5777 5775 5773 5771 5768
5810 5809 5808 5806 5805 5804 5803 5802 5801 5800 5800 5799 5800 5800 5800 5801 5801 5800 5800 5800 5799 5798 5797 5796 5795 5793 5792 5790 5788 5787 5785 5783 5782 5780 5778 5776 5775 5772 5770 5768 5766 5764 5761
5805 5804 5803 5801 5800 5800 5798 5798 5796 5795 5795 5795 5796 5796 5795 5796 5796 5796 5795 5795 5794 5793 5792 5791 5790 5788 5787 5785 5783 5781 5780 5778 5776 5774 5773 5770 5768 5766 5763 5761 5759 5757 5754
5801 5800 5798 5796 5796 5795 5794 5792 5791 5790 5790 5790 5790 5791 5791 5791 5792 5791 5791 5790 5789 5788 5787 5786 5784 5783 5781 5779 5778 5776 5774 5772 5770 5768 5766 5764 5762 5759 5756 5754 5752 5749 5747
5797 5796 5794 5793 5792 5791 5789 5788 5787 5786 5785 5785 5785 5786 5786 5786 5787 5787 5786 5786 5785 5783 5782 5780 5779 5777 5776 5774 5772 5771 5769 5767 5765 5762 5760 5758 5755 5752 5749 5746 5743 5741 5739
5793 5791 5790 5789 5788 5786 5784 5783 5782 5781 5780 5780 5780 5781 5781 5782 5782 5782 5781 5781 5780 5778 5777 5775 5773 5772 5770 5769 5767 5765 5763 5761 5759 5756 5754 5751 5748 5745 5742 5739 5736 5733 5730
5789 5788 5786 5785 5784 5782 5781 5779 5778 5778 5777 5777 5777 5777 5777 5777 5777 5777 5777 5776 5775 5773 5772 5770 5769 5767 5765 5764 5762 5760 5758 5755 5753 5750 5748 5745 5741 5738 5735 5732 5728 5725 5722
5786 5784 5783 5782 5781 5779 5778 5776 5775 5775 5774 5774 5774 5773 5773 5773 5772 5772 5771 5771 5770 5769 5767 5766 5764 5762 5760 5759 5756 5754 5752 5749 5747 5744 5741 5738 5734 5731 5728 5724 5721 5717 5714
5783 5780 5779 5778 5777 5776 5775 5774 5773 5772 5772 5771 5771 5770 5770 5769 5769 5768 5767 5766 5766 5765 5763 5761 5760 5758 5756 5753 5751 5749 5746 5744 5741 5738 5734 5731 5728 5725 5721 5717 5713 5710 5706
5780 5778 5776 5775 5774 5773 5772 5771 5770 5770 5769 5769 5768 5768 5767 5767 5766 5765 5764 5763 5762 5761 5759 5757 5756 5754 5751 5749 5746 5744 5741 5738 5735 5732 5728 5725 5721 5718 5714 5710 5706 5703 5699
5778 5776 5774 5772 5771 5770 5769 5769 5768 5767 5767 5767 5766 5766 5765 5764 5763 5762 5761 5760 5759 5757 5755 5754 5752 5750 5747 5744 5742 5739 5736 5733 5730 5726 5723 5719 5715 5711 5707 5703 5700 5696 5692
5776 5774 5772 5770 5768 5767 5767 5766 5766 5765 5765 5765 5764 5763 5763 5762 5761 5760 5759 5757 5755 5754 5752 5750 5748 5745 5743 5740 5737 5734 5731 5728 5725 5722 5718 5714 5709 5705 5701 5697 5693 5689 5685
5775 5773 5771 5768 5767 5765 5764 5764 5763 5763 5763 5762 5762 5761 5760 5759 5758 5757 5756 5754 5752 5751 5749 5746 5744 5742 5739 5736 5734 5730 5727 5724 5720 5717 5713 5709 5705 5700 5696 5691 5687 5682 5678
5773 5771 5769 5767 5765 5764 5762 5762 5761 5760 5760 5759 5759 5758 5758 5757 5756 5754 5753 5751 5750 5748 5746 5744 5741 5739 5736 5733 5730 5727 5724 5720 5717 5713 5709 5705 5700 5695 5691 5686 5681 5677 5672
5773 5770 5768 5766 5764 5762 5761 5760 5759 5758 5758 5757 5757 5756 5755 5754 5753 5752 5751 5749 5747 5745 5743 5741 5739 5736 5733 5731 5728 5724 5721 5717 5713 5709 5705 5700 5695 5690 5686 5681 5676 5671 5666
5773 5771 5769 5766 5764 5762 5761 5759 5758 5757 5757 5756 5756 5755 5754 5753 5752 5751 5749 5747 5745 5743 5741 5739 5736 5734 5731 5728 5725 5721 5718 5714 5710 5705 5701 5695 5690 5685 5680 5675 5670 5665 5660
5773 5771 5769 5766 5764 5762 5761 5760 5758 5757 5756 5756 5755 5754 5753 5752 5751 5750 5748 5746 5744 5742 5740 5737 5735 5732 5729 5726 5722 5718 5714 5710 5706 5701 5696 5691 5686 5680 5675 5669 5664 5658 5653
5772 5771 5769 5767 5765 5763 5761 5760 5759 5758 5757 5756 5755 5754 5753 5752 5750 5749 5747 5745 5743 5741 5739 5736 5733 5730 5727 5723 5719 5715 5711 5707 5702 5697 5692 5687 5681 5675 5670 5664 5658 5652 5646
5772 5771 5769 5767 5765 5764 5762 5761 5759 5758 5757 5757 5756 5755 5753 5752 5750 5748 5747 5745 5743 5740 5738 5735 5732 5729 5725 5721 5716 5712 5708 5703 5698 5693 5688 5682 5676 5670 5665 5659 5652 5646 5640
5772 5770 5769 5767 5766 5764 5763 5761 5760 5759 5758 5756 5755 5754 5753 5751 5750 5748 5746 5744 5742 5740 5737 5734 5731 5727 5723 5719 5714 5710 5705 5700 5695 5689 5684 5678 5672 5666 5660 5653 5647 5640 5633
5772 5771 5769 5767 5766 5765 5763 5762 5760 5759 5758 5756 5755 5754 5752 5751 5749 5748 5746 5743 5741 5739 5736 5733 5729 5725 5721 5717 5712 5707 5702 5697 5691 5686 5680 5674 5668 5662 5655 5648 5641 5634 5627
5772 5770 5769 5767 5766 5764 5763 5762 5760 5759 5758 5756 5754 5753 5752 5750 5749 5747 5745 5743 5741 5738 5735 5731 5727 5723 5719 5714 5709 5703 5698 5693 5688 5682 5676 5670 5664 5657 5650 5643 5636 5629 5622
Wind_Speed
19 19 19 19 18 19 20 19 18 18 19 18 18 17 17 17 17 16 15 16 16 16 16 16 15 15 15 16 16 17 17 17 18 18 18 18 18 18 18 18 18 19 19
20 19 18 18 18 18 18 18 19 19 18 17 18 17 16 16 16 15 15 16 16 16 16 16 16 15 16 17 17 17 18 18 18 19 19 19 19 19 19 19 20 20 21
18 19 19 19 20 20 19 18 18 18 17 17 17 16 15 15 15 15 15 16 16 15 15 16 16 17 17 18 18 18 18 19 19 19 19 19 20 20 20 21 21 22 22
17 17 18 19 19 19 19 18 18 18 17 17 16 15 15 15 14 15 15 15 16 16 16 17 17 18 18 18 19 19 19 19 20 20 20 20 21 21 21 21 22 23 24
18 18 19 19 19 20 18 17 17 17 18 17 16 15 16 16 15 15 15 16 16 17 18 18 18 19 20 20 20 20 20 21 21 21 21 21 22 22 22 22 23 24 24
18 18 18 18 18 18 18 18 18 17 17 17 16 16 16 16 16 16 16 17 17 17 18 19 19 19 20 21 21 20 20 21 21 21 21 21 22 23 24 24 24 24 25
17 17 17 17 16 16 17 17 17 16 17 17 17 18 17 16 16 17 18 18 17 18 18 19 19 19 19 19 19 19 19 20 20 21 21 22 23 23 24 24 24 25 26
17 15 16 16 16 16 16 15 16 16 17 17 17 17 17 17 17 18 18 17 17 18 18 19 19 19 19 19 19 18 19 20 21 21 22 23 23 23 24 24 25 25 26
18 17 15 16 15 15 14 14 15 16 17 17 17 17 16 16 16 16 17 17 17 18 19 18 18 18 18 19 18 19 19 20 21 22 23 23 23 24 24 25 26 26 26
16 15 13 14 13 14 14 14 14 13 15 15 15 15 16 16 16 17 16 16 16 17 17 17 18 17 18 18 18 19 20 20 21 22 23 23 23 24 25 26 26 26 27
14 14 12 12 11 11 11 12 12 11 13 12 12 13 14 14 15 16 16 15 15 16 16 17 17 17 17 18 19 20 20 20 21 21 22 23 24 25 25 26 26 26 27
15 13 11 12 11 10 10 10 10 10 10 10 10 11 12 12 13 13 14 15 16 15 15 16 16 16 17 18 18 19 19 19 20 21 22 22 23 24 24 25 25 26 26
12 11 10 10 10 10 9 9 9 9 10 10 10 11 10 10 11 12 12 13 13 14 14 14 14 15 16 17 17 17 18 19 20 21 21 22 23 24 24 25 25 26 27
12 10 9 9 9 9 9 9 9 9 9 9 9 9 9 10 10 10 11 11 11 12 13 13 14 15 15 15 16 17 17 18 19 21 22 23 23 24 24 24 25 26 27
11 10 10 10 8 8 8 8 7 7 8 8 8 8 8 9 10 10 10 10 11 11 12 13 14 15 15 15 16 17 18 18 19 20 21 22 23 23 23 24 24 26 26
11 10 10 9 9 8 6 6 7 7 8 8 8 9 9 9 9 10 10 10 11 11 12 13 14 14 15 15 15 16 17 17 18 19 20 21 22 22 23 24 24 25 25
10 9 9 9 8 7 6 6 7 7 8 8 8 9 9 9 9 10 9 9 10 11 11 12 12 13 14 15 15 16 16 17 18 19 20 21 22 22 23 24 24 25 25
10 9 10 9 8 8 6 5 6 6 7 7 7 8 8 8 8 8 8 8 9 10 10 11 12 12 13 14 15 16 16 17 18 19 21 21 22 23 23 24 25 26 26
10 9 9 9 8 7 6 5 4 5 5 5 6 6 6 7 7 7 7 8 9 9 9 11 11 12 13 14 15 15 16 18 20 21 22 23 23 24 25 25 26 27 27
10 9 9 8 8 7 6 5 4 4 4 4 4 4 5 5 5 6 6 7 8 8 9 11 12 13 14 15 16 17 17 19 21 22 23 25 25 25 26 26 27 28 28
9 9 9 9 8 7 6 6 5 4 3 3 3 3 4 4 5 5 6 7 8 9 10 11 13 13 14 15 17 18 18 20 22 23 24 25 25 26 27 28 29 30 30
9 9 9 9 8 7 7 6 6 5 4 3 4 4 5 5 5 5 6 7 8 9 10 12 13 14 15 16 18 18 19 21 22 23 24 25 26 27 28 29 30 31 30
8 8 9 8 8 7 7 6 6 5 5 4 4 5 6 6 6 6 6 7 8 9 10 12 13 15 16 18 19 20 20 21 22 23 24 25 27 28 29 30 30 31 31
8 8 8 8 8 7 6 6 5 5 5 4 4 5 6 6 6 6 7 8 8 9 11 12 14 15 17 18 19 20 20 22 23 24 25 26 27 29 30 31 31 32 32
7 7 8 8 8 7 6 5 5 5 5 5 5 5 6 6 6 7 7 8 8 10 12 13 15 16 17 19 20 20 21 22 24 25 26 28 29 30 31 32 32 33 32
7 6 7 7 7 7 7 5 5 5 6 6 6 6 6 6 7 7 7 8 9 11 13 14 16 18 19 21 22 22 22 23 25 26 28 29 30 31 32 32 33 33 32
Wind_Direction
281 283 282 281 278 277 275 275 276 278 276 275 273 272 273 274 275 277 276 278 279 282 284 286 289 293 294 293 293 291 290 289 289 290 289 288 289 288 288 285 282 279 277
282 281 282 281 278 275 274 275 275 274 275 274 273 271 273 273 276 276 276 279 282 284 286 287 289 292 294 293 292 290 290 288 287 289 289 288 287 288 286 286 284 280 279
279 281 283 282 284 282 277 274 274 273 272 272 272 269 270 271 275 277 278 279 282 284 286 286 289 290 294 294 292 291 290 289 288 289 289 288 286 286 286 284 283 282 281
277 283 285 284 282 281 277 275 273 270 267 265 266 268 269 269 275 278 278 278 282 286 286 287 290 291 291 293 292 291 290 290 289 290 289 288 288 286 285 283 283 283 282
275 284 287 286 282 278 276 273 272 267 264 265 262 266 267 270 272 274 277 279 282 284 285 289 289 289 289 290 291 290 290 289 288 290 290 289 289 288 286 285 285 284 283
279 281 283 281 279 278 274 274 273 265 263 264 264 266 266 268 270 274 276 278 281 283 284 286 288 289 289 289 291 290 291 290 289 290 290 291 292 290 288 287 285 285 284
287 286 284 283 278 278 276 275 268 260 262 264 264 264 267 270 270 274 276 278 280 283 285 286 288 289 288 289 292 290 289 291 291 291 290 291 292 291 290 288 287 287 286
288 289 289 287 287 287 287 285 275 270 268 267 267 267 268 269 270 273 276 276 279 282 284 287 286 286 288 290 293 292 290 291 292 291 292 293 294 293 293 292 291 289 288
293 292 294 291 288 288 287 288 281 276 273 271 269 270 272 272 275 275 274 276 279 282 284 286 286 286 287 290 292 293 293 293 293 293 294 295 295 296 296 295 294 292 290
299 294 296 294 290 292 289 288 281 283 279 276 270 269 270 272 273 273 278 278 280 283 285 285 288 288 288 289 291 294 296 296 296 296 296 297 297 297 298 298 297 295 293
303 301 297 301 302 296 288 281 279 281 279 276 267 270 274 276 278 282 280 278 284 287 284 287 289 289 289 290 292 295 296 296 297 297 298 298 298 298 298 298 298 298 297
306 306 305 296 297 296 289 284 282 279 281 280 279 275 277 280 283 286 285 284 285 288 289 290 290 292 294 294 295 297 298 297 298 299 300 300 300 299 299 299 300 300 300
317 313 309 303 300 298 294 291 287 281 284 284 285 284 285 290 293 292 292 290 288 289 291 291 294 298 298 296 296 298 299 300 301 302 303 304 304 304 303 302 300 300 301
326 325 318 307 297 295 295 292 288 284 283 285 288 289 289 293 298 299 298 296 294 295 294 296 300 301 303 302 302 302 302 303 304 305 306 306 306 306 305 303 302 301 301
332 330 327 322 308 298 290 286 287 285 281 284 286 288 291 297 300 301 300 300 301 303 302 302 302 304 306 308 306 305 304 305 308 310 312 313 312 310 309 307 305 305 305
337 335 331 328 319 306 295 283 282 286 285 285 287 288 292 297 300 301 303 302 302 303 306 306 305 307 307 309 311 312 310 310 315 318 319 318 317 316 315 313 311 310 309
339 334 332 330 324 312 299 285 280 281 285 286 285 287 290 294 298 297 301 306 308 310 311 312 311 312 311 313 317 320 318 318 321 322 322 322 321 321 319 317 315 314 313
343 341 343 342 338 330 314 293 289 285 282 285 287 288 288 293 296 297 304 309 312 315 315 314 319 319 318 319 321 320 320 323 324 324 323 323 322 321 321 319 317 314 313
354 353 353 353 351 345 339 325 310 293 290 289 288 287 285 292 302 304 308 315 317 319 322 323 327 325 322 323 324 324 324 324 325 325 325 325 324 322 322 320 318 316 314
358 358 354 356 355 349 345 342 333 314 305 303 299 300 306 310 314 313 319 324 324 329 336 335 333 330 328 329 328 326 325 326 327 327 326 326 325 324 323 322 320 318 316
359 1 360 1 4 2 0 1 359 350 335 335 344 345 342 335 331 333 338 341 342 345 344 341 338 336 334 333 333 331 330 329 328 327 327 327 326 326 325 325 324 322 321
358 360 1 3 7 10 11 11 7 7 8 17 19 9 356 351 350 350 353 352 349 348 346 344 343 340 338 337 336 335 333 332 331 331 330 329 329 329 329 328 326 326 324
359 359 2 6 8 10 13 14 16 18 17 14 12 3 359 358 356 354 353 352 347 347 346 344 341 339 338 336 336 335 334 333 333 333 332 332 332 332 330 329 329 328 327
1 5 6 7 7 9 11 13 16 15 5 357 354 355 355 356 353 350 348 349 351 349 346 344 343 342 340 338 336 335 334 334 335 335 334 333 332 332 331 330 330 329 328
4 11 12 8 7 4 1 5 7 4 0 358 356 355 352 350 348 347 347 349 349 348 346 345 344 343 342 341 340 338 337 337 337 336 335 334 333 332 332 331 330 330 328
353 359 360 360 359 356 353 350 351 355 357 356 355 354 353 349 346 345 347 345 344 343 343 342 342 343 342 341 341 340 339 339 338 337 336 336 334 333 332 332 332 332 331